Location: Newark
(41.8083°N, 72.2500°W)
Time: 00:28:13
(UTC+00:00)

Vanguard 1 Rocket - Pass Details

Date: 14 December 2021
Orbit: 651 x 4224 km, 34.3° (Epoch: 15 January)

Event Time Altitude Azimuth Distance (km) Brightness Sun altitude
Exits shadow 10:56:24 10° 266° (W) 4,749 10.5 -13.0°
Maximum altitude 11:08:37 33° 209° (SSW) 4,433 10.8 -10.9°
Drops below altitude 10° 11:27:42 10° 156° (SSE) 7,261 12.8 -7.6°
Sets 11:34:51 0° 148° (SSE) 8,447 13.4 -6.4°
